Theta_e
303 304 304 305 308 310 312 316 319 319 320 323 323 323 324 324 323 322 319 317 317 318 321 323 326 325 324 322 320 320 318 318 317 317 318 317 317 317 316 314 312 310 310
304 303 305 307 307 309 312 316 318 318 319 320 321 322 322 322 321 320 318 317 317 315 321 323 325 324 324 322 321 319 318 318 318 317 317 317 317 316 314 312 309 309 309
303 303 305 306 307 309 311 315 318 317 317 318 320 321 320 320 320 319 317 319 318 318 321 323 325 323 324 322 321 319 318 317 317 317 317 317 315 313 311 309 309 309 308
303 304 305 305 306 309 311 315 318 317 317 317 319 320 320 321 320 319 319 318 318 320 320 321 322 323 323 321 320 318 317 316 317 317 317 316 314 311 309 308 308 308 307
303 304 305 306 308 309 311 314 316 317 318 318 319 320 320 320 320 318 319 319 320 319 318 321 321 322 320 319 318 318 316 317 318 316 316 315 313 310 308 308 308 307 307
302 304 305 308 311 311 311 314 315 317 317 317 319 319 318 318 319 318 318 319 319 319 321 322 320 319 318 317 318 317 315 316 317 316 315 314 312 309 308 308 307 307 306
303 303 304 309 311 312 312 314 315 316 317 316 315 310 309 310 312 316 317 317 317 318 319 319 319 318 318 317 317 317 316 315 316 316 314 313 310 308 307 307 307 306 306
303 303 306 309 310 313 313 314 315 316 313 316 313 310 310 307 305 307 311 312 312 312 313 315 316 316 316 316 316 317 317 316 316 315 314 312 309 307 307 306 306 306 305
304 305 307 309 310 312 311 315 315 313 314 314 314 313 313 309 304 303 304 307 308 309 310 311 311 312 312 314 314 314 313 315 316 315 314 311 308 307 306 306 305 305 304
305 307 308 308 310 313 314 316 316 313 314 312 312 312 311 308 306 305 302 303 306 308 308 309 309 309 309 309 310 311 311 312 313 314 312 310 308 306 305 305 304 304 303
305 307 307 308 310 312 314 314 316 315 313 313 311 309 309 308 307 306 304 302 303 303 304 306 306 307 306 306 306 308 309 311 313 312 310 308 306 305 304 303 303 302 302
305 307 307 308 309 311 314 315 315 314 313 312 312 311 310 310 307 305 304 302 301 302 305 305 305 306 306 305 304 306 308 309 310 310 308 307 305 304 302 302 301 301 300
304 306 306 308 309 310 314 315 315 315 314 314 313 312 313 312 310 308 304 303 302 301 303 303 304 304 304 304 303 303 306 308 308 307 306 305 303 302 301 300 299 299 298
302 304 306 307 308 310 313 315 315 314 314 314 313 313 312 311 311 309 306 305 304 301 301 302 302 303 302 303 302 302 303 304 304 303 303 302 301 300 298 298 297 297 297
302 305 306 307 308 310 313 314 315 315 314 314 313 312 311 311 310 311 311 311 308 306 304 301 302 302 302 303 301 301 301 302 301 301 301 300 299 298 297 295 295 295 295
303 305 306 307 308 310 312 314 315 315 314 313 313 313 312 312 311 311 311 310 312 310 304 300 300 301 301 302 301 300 300 300 300 300 299 299 298 297 296 295 294 293 293
304 306 307 307 309 310 312 314 315 314 314 314 313 313 313 312 312 312 313 311 312 310 302 298 300 300 300 301 300 299 299 299 299 299 298 297 297 296 294 294 293 293 292
304 304 305 307 308 310 312 315 315 315 314 314 314 314 314 313 315 314 314 311 311 309 306 297 297 297 298 299 299 299 298 298 298 298 297 296 296 295 294 294 293 292 291
306 307 307 308 308 311 315 316 315 315 315 315 314 315 315 315 314 314 312 311 311 308 307 303 298 298 298 298 298 299 299 300 299 298 297 296 295 295 294 294 293 292 291
308 309 309 310 311 313 315 316 316 316 316 315 315 316 316 316 314 312 311 312 310 308 306 303 300 298 299 298 299 299 299 299 299 298 298 297 296 295 295 294 293 292 292
310 309 311 312 314 315 316 316 316 315 316 315 315 316 316 316 312 313 313 310 310 308 305 302 301 299 299 298 299 299 299 299 297 298 297 297 297 296 295 295 294 294 293
310 311 314 315 316 317 317 316 316 316 315 315 315 315 316 316 315 313 313 311 309 307 304 303 301 300 299 299 300 301 300 299 296 297 297 296 295 292 291 290 291 292 291
309 312 314 316 315 316 316 317 317 316 316 315 314 315 315 313 314 312 310 307 305 305 305 305 304 301 300 300 301 300 299 298 296 294 294 292 292 289 289 289 289 289 289
310 311 310 310 313 311 314 316 316 314 314 312 311 312 313 310 310 310 307 305 304 303 303 304 304 303 302 300 299 299 298 296 294 293 293 290 289 288 288 288 288 287 286
307 307 306 307 309 306 308 312 314 311 308 306 307 308 309 308 307 307 308 304 303 302 301 301 301 299 298 296 295 296 296 295 290 289 289 289 288 288 288 287 286 285 285
304 304 304 304 303 303 305 309 311 309 305 304 304 304 306 306 306 305 307 305 298 293 293 292 294 295 294 293 292 292 292 292 291 288 287 287 287 286 287 287 285 284 283
Wind_Speed
13 12 13 9 7 8 9 7 9 10 18 22 20 26 27 30 30 31 29 23 22 16 17 17 16 16 19 17 15 13 13 12 13 12 12 12 14 17 16 16 16 13 14
10 12 9 7 7 9 9 9 9 13 14 22 23 25 28 29 30 27 22 20 16 16 21 18 16 16 20 18 15 14 13 12 12 12 12 13 16 16 14 14 13 12 14
12 12 9 6 7 11 11 9 9 14 14 18 23 23 23 24 22 22 21 19 20 21 21 17 15 19 23 20 16 14 13 11 11 10 11 15 16 14 15 13 13 13 13
8 7 7 8 7 10 10 9 6 13 18 19 20 22 22 21 21 21 20 21 20 22 21 20 15 17 29 23 18 15 13 11 10 13 14 16 15 15 13 13 13 12 13
7 9 8 8 9 8 7 8 7 15 18 20 20 23 23 23 25 23 19 17 17 15 14 14 15 19 26 23 17 15 13 11 13 15 15 14 14 14 11 11 12 12 13
5 8 9 9 8 6 6 7 7 12 19 19 18 20 17 20 24 23 21 20 16 14 18 23 29 27 24 20 16 14 13 12 11 15 14 14 13 12 11 11 11 11 12
5 8 9 8 9 8 7 7 8 10 16 19 21 24 24 23 27 30 28 28 30 30 34 31 27 25 24 19 15 14 12 11 11 14 15 14 13 11 11 10 10 11 11
4 5 7 8 9 8 3 5 6 16 11 20 8 11 3 10 25 28 30 28 24 24 23 21 18 19 18 18 19 16 13 9 9 13 14 13 12 12 10 9 9 10 10
2 5 5 7 9 5 3 5 15 18 16 15 26 7 3 3 6 17 25 28 25 25 24 21 17 15 13 14 13 12 12 11 10 13 14 13 10 11 8 9 8 8 10
3 5 5 6 9 9 4 3 13 15 20 21 16 13 11 18 4 3 19 21 20 21 19 19 15 14 12 9 7 7 8 8 9 14 14 13 10 10 7 7 7 7 10
4 4 4 6 9 8 1 1 9 18 23 22 22 20 23 23 14 5 4 5 16 15 16 17 13 13 11 11 10 9 10 10 13 15 13 12 10 8 6 4 6 6 10
4 3 4 7 9 6 9 6 11 18 23 23 27 26 22 10 11 9 5 5 6 7 10 11 9 9 9 8 10 10 10 10 10 11 8 3 1 4 4 3 4 7 9
2 2 5 5 8 4 8 8 9 9 23 25 27 27 23 22 25 22 15 5 4 3 4 6 6 6 7 7 8 8 9 9 8 7 6 4 3 2 1 2 3 7 7
5 3 3 4 7 3 4 6 11 12 15 22 24 24 22 24 26 29 17 14 3 4 3 3 7 6 6 6 6 7 8 8 6 5 3 1 2 4 2 1 4 6 6
4 5 4 5 5 2 3 5 8 15 17 18 21 22 23 23 23 25 27 24 12 3 2 5 4 8 7 7 7 8 8 8 6 4 1 2 2 4 0 3 5 6 7
5 4 4 3 1 2 5 6 8 10 20 23 22 21 18 21 23 24 26 16 8 6 3 3 5 10 9 8 8 8 8 8 6 4 4 2 6 7 3 4 5 7 8
6 5 3 2 2 4 6 5 12 17 21 23 22 20 20 25 22 19 17 18 11 5 7 4 9 9 11 10 9 8 8 6 6 5 4 5 6 9 8 5 7 8 9
7 4 3 3 4 8 7 9 14 17 20 23 21 20 22 21 16 13 11 16 13 7 6 11 11 10 9 10 8 7 6 4 4 4 5 7 7 7 8 9 10 10 11
3 2 4 5 7 8 8 8 17 18 18 17 20 19 20 18 13 12 14 15 11 9 9 14 11 10 7 11 8 7 5 4 4 5 6 7 8 9 9 11 12 11 13
2 7 7 9 10 9 9 13 15 19 18 19 20 15 17 16 16 17 17 15 12 10 11 16 13 9 6 6 5 4 5 5 5 6 8 9 9 11 11 13 14 16 16
7 11 13 11 10 8 10 14 16 17 21 16 11 11 15 13 14 20 19 15 12 14 16 14 13 8 6 6 5 3 3 1 2 5 7 5 8 10 11 12 13 12 13
10 12 16 15 12 11 13 16 16 18 18 18 16 13 11 9 12 15 10 12 13 20 18 13 10 9 8 8 6 3 2 3 3 8 10 8 11 13 14 13 9 9 7
11 11 12 12 13 13 11 15 15 18 17 16 15 16 14 13 14 17 16 17 18 14 11 10 13 9 8 6 6 4 4 4 3 6 8 7 14 15 19 24 22 19 12
11 11 10 12 13 12 11 15 15 18 17 17 17 20 20 21 20 23 24 21 18 16 13 12 11 11 10 9 6 6 5 6 4 6 8 5 12 11 17 20 20 20 19
13 13 13 15 15 14 14 15 19 23 23 22 22 22 23 24 22 22 22 22 20 18 14 11 12 11 9 7 5 7 5 5 4 6 9 4 9 6 7 17 21 21 22
18 19 19 17 18 19 20 22 25 29 30 29 27 25 23 23 18 15 16 16 20 17 14 13 13 12 10 8 8 7 6 7 7 4 9 4 8 9 3 9 18 21 23
Wind_Direction
313 311 308 295 281 295 291 295 250 242 200 176 176 166 163 159 152 148 150 154 152 161 170 176 156 164 151 137 135 132 124 117 111 105 94 87 97 89 77 69 60 55 54
313 316 314 301 294 304 292 304 255 236 209 204 181 171 164 162 165 170 175 178 185 170 189 179 170 169 156 136 139 132 124 119 120 110 107 102 91 82 72 65 64 59 57
316 312 310 309 312 291 285 308 251 220 204 191 176 173 175 178 165 170 166 162 166 182 185 176 183 176 150 143 140 131 128 124 118 124 119 108 94 77 67 71 69 66 58
332 332 325 317 306 301 304 301 251 204 203 192 163 170 173 175 180 175 166 170 180 188 186 186 192 180 145 135 132 127 123 122 117 123 120 107 94 82 74 71 69 66 59
338 340 331 310 295 295 294 303 257 195 175 180 162 161 170 164 170 161 163 167 175 182 191 190 192 155 127 121 122 125 120 122 120 124 117 107 97 83 79 75 70 66 62
322 321 318 318 333 322 286 259 242 188 179 169 152 137 129 150 165 150 141 132 134 147 123 147 124 118 114 117 123 118 123 120 122 122 115 106 95 88 87 77 71 63 59
331 310 321 339 344 335 300 267 235 188 178 155 122 90 86 107 120 134 127 118 107 104 114 118 119 119 117 120 116 116 115 120 129 125 122 112 96 95 85 80 71 65 58
309 301 333 344 349 339 292 288 213 141 184 170 146 107 109 71 71 103 119 114 111 111 108 109 119 120 124 124 121 117 104 125 142 132 127 111 104 94 85 77 69 63 59
308 334 351 357 350 355 297 222 179 164 150 187 162 125 131 140 95 67 93 105 108 107 111 116 118 123 123 125 126 127 127 119 131 132 123 106 100 93 86 79 70 60 58
15 11 11 8 359 35 67 205 181 178 152 143 127 125 134 144 114 113 65 91 102 103 106 110 115 114 111 119 133 135 121 120 139 131 122 112 101 90 80 75 66 55 52
40 29 21 17 10 37 94 93 184 172 150 134 125 117 111 100 106 105 103 81 96 102 110 112 115 110 103 96 100 122 121 119 133 138 128 119 105 96 84 74 61 50 49
35 18 21 18 10 23 59 100 127 119 152 141 135 130 128 137 128 105 97 81 106 78 103 119 119 112 102 98 99 113 127 137 146 147 153 170 165 112 87 67 54 51 46
11 353 15 9 10 30 63 115 147 151 134 138 136 143 144 145 147 142 129 117 105 127 131 127 122 130 122 113 113 130 144 142 153 159 176 183 190 192 139 51 37 42 35
322 315 347 359 359 36 76 92 175 166 151 147 150 160 165 171 168 161 149 141 108 80 88 151 176 162 143 140 140 146 157 157 159 170 158 190 276 277 175 41 26 22 19
309 297 314 340 354 46 149 93 159 175 170 163 164 166 166 168 169 169 174 172 143 144 172 180 159 186 172 165 163 167 167 170 174 165 187 220 296 328 30 353 4 359 358
295 284 284 308 334 148 155 104 165 178 173 168 170 170 168 170 178 181 178 170 149 128 124 151 177 185 181 179 180 177 182 186 188 195 213 257 289 290 284 315 319 329 334
284 272 268 285 221 158 152 125 160 155 148 152 160 167 171 175 178 181 185 188 179 164 124 143 164 174 183 184 183 187 188 201 211 234 278 303 298 296 297 312 311 308 312
275 251 223 201 200 152 138 134 153 156 156 156 164 161 167 173 167 165 185 181 190 190 153 145 160 164 183 182 189 194 201 213 233 259 288 300 302 316 301 304 296 304 309
248 205 180 156 155 134 113 141 159 161 153 165 165 161 171 182 183 183 172 171 177 167 158 158 143 163 162 183 189 198 205 231 252 269 275 283 293 302 304 316 321 307 313
161 136 129 125 130 134 133 138 148 152 156 141 157 147 164 172 176 169 163 174 168 148 136 140 128 133 138 173 194 218 240 267 282 285 292 299 309 311 313 314 310 308 312
152 139 133 132 132 146 165 146 151 154 169 166 153 139 150 149 159 164 170 166 158 141 135 129 124 128 133 137 170 163 205 266 310 346 351 344 346 348 341 324 309 308 298
146 146 140 136 129 120 131 151 151 148 152 165 163 164 163 168 168 175 168 157 155 144 136 129 128 136 139 135 127 100 60 51 68 26 16 32 28 20 2 350 336 338 346
139 129 127 137 136 135 144 156 158 151 155 157 164 170 163 155 155 146 143 137 134 136 136 135 127 120 117 119 127 116 97 102 91 10 9 48 35 48 56 54 47 47 36
149 141 138 132 129 127 153 164 157 151 148 145 148 151 149 144 144 141 136 130 122 111 105 109 112 114 126 128 131 124 116 110 93 50 24 72 26 76 66 53 37 29 28
151 143 137 133 132 131 150 156 152 139 132 129 132 136 137 135 138 141 138 126 113 106 114 127 129 128 122 125 122 142 133 141 92 60 35 61 22 52 88 42 36 34 43
147 137 127 129 135 136 145 146 142 134 126 123 122 124 126 126 128 132 130 131 127 127 127 121 119 122 115 105 88 97 107 103 91 90 30 59 27 25 92 48 31 31 34